Regional Weather Roundup
Issued by NWS

Home | Current Version | Previous Version | Text Only | Print | Product List | Glossary Off
Versions: 1 2 3 4 5 6 7 8 9 10 11 12 13 14 15 16 17 18 19 20 21 22 23 24 25 26 27 28 29 30 31 32 33 34 35 36 37 38 39 40 41 42 43 44 45 46 47 48 49 50

314
ASUS44 KLIX 300707
RWRLA
LOUISIANA WEATHER ROUNDUP
NATIONAL WEATHER SERVICE NEW ORLEANS LA
200 AM CDT MON MAR 30 2015

NOTE: "FAIR" INDICATES FEW OR NO CLOUDS BELOW 12,000 FEET WITH NO
      SIGNIFICANT WEATHER AND/OR OBSTRUCTIONS TO VISIBILITY.
      SKY/WX - SKY CONDITION AND SIGNIFICANT WEATHER.
      TMP - AIR TEMPERATURE.    DP   - DEWPOINT TEMPERATURE.
      RH  - RELATIVE HUMIDITY.  PRES - PRESSURE.
      HX  - HEAT INDEX.         WCI  - WIND CHILL INDEX.

*  THESE STATIONS ARE NOT NWS OR FAA STATIONS AND ARE NOT UNDER
   NWS QUALITY CONTROL.

LAZ040-048-061>063-065-066-069-300800-
SOUTHEAST LOUISIANA

CITY           SKY/WX    TMP DP  RH WIND       PRES   REMARKS
N.O. AUDUBON     N/A     64  64 100 MISG        N/A
N.O. INTL ARPT CLEAR     64  61  90 S7        30.17F
N.O. LAKEFRONT CLEAR     66  61  84 S9        30.18F
SLIDELL        CLEAR     62  61  96 S3        30.17F
BATON ROUGE    PTCLDY    65  60  84 S5        30.19R
BOOTHVILLE     PTCLDY    67  65  93 S7        30.21F
BELLE CHASSE   FOG       58  57  97 SW5       30.17F VSB 1
BOGALUSA*        N/A     64  61  89 CALM      30.21R
GALLIANO*      SUNNY     65  62  93 S7        30.19F
NEW ROADS*     CLOUDY    64  61  91 CALM      30.20R
GONZALES*      FAIR      63  63 100 S3        30.16F
HAMMOND*       CLEAR     63  61  94 CALM      30.20R
HOUMA*         CLEAR     65  62  90 S3        30.18F
PORT FOURCHON* SUNNY     70  64  83 S3        30.22F

$$

LAZ041-044-053-054-300800-
SOUTHWEST LOUISIANA

CITY           SKY/WX    TMP DP  RH WIND       PRES   REMARKS
LAKE CHARLES   MOCLDY    66  64  93 SW3       30.17R
LAFAYETTE      MOCLDY    66  63  90 W3        30.18R
PATTERSON      CLEAR     63  61  94 S7        30.18F
SALT POINT       N/A     66  63  90 VRB3      30.16F
NEW IBERIA     CLEAR     66  62  87 S8        30.17F
CHENAULT AIRPK MOCLDY    62  61  98 CALM      30.18S

$$

LAZ027-028-300800-
CENTRAL LOUISIANA

CITY           SKY/WX    TMP DP  RH WIND       PRES   REMARKS
FORT POLK      CLOUDY    63  61  93 W1        30.17R
ALEXANDRIA INT CLEAR     60  58  92 CALM      30.17S
ALEXANDRIA     PTCLDY    60  58  92 CALM      30.19R

$$

LAZ001-002-300800-
NORTHWEST LOUISIANA

CITY           SKY/WX    TMP DP  RH WIND       PRES   REMARKS
SHREVEPORT     PTCLDY    66  60  81 S8        30.13S
BARKSDALE AFB  CLEAR     66  59  80 S9        30.13S
DTN SHREVEPORT CLEAR     66  58  75 S12       30.13S

$$

LAZ014-016-300800-
NORTHEAST LOUISIANA

CITY           SKY/WX    TMP DP  RH WIND       PRES   REMARKS
MONROE         CLEAR     65  60  84 SW14G23   30.14F
TALLULAH       CLEAR     66  58  75 SW8       30.15F

$$




USA.gov is the U.S. government's official web portal to all federal, state and local government web resources and services.